Location: Newark
(39.0622°N, 106.5590°E)
Time: 18:47:19
(UTC+00:00)

Courier 1B - Pass Details

Date: 25 January 2020
Orbit: 962 x 1209 km, 28.3° (Epoch: 21 February)

Event Time Altitude Azimuth Distance (km) Brightness Sun altitude
Rises 17:26:58 0° 200° (SSW) 3,749 - -69.4°
Reaches altitude 10° 17:31:50 10° 170° (S) 2,863 - -69.1°
Maximum altitude 17:34:06 12° 151° (SSE) 2,768 - -69.0°
Drops below altitude 10° 17:36:25 10° 132° (SE) 2,927 - -68.9°
Sets 17:41:32 0° 102° (ESE) 3,956 - -68.5°
